Cloud_Cover
6 5 90 100 100 99 69 100 62 5 14 23 78 83 98 94 17 0 0 0 3 59 12 5 34 94 100 100 100 100 0 5 84 100 100 70 85 4 0 0 0 0 0 0 0 0 0 0 0
100 100 100 100 100 95 78 100 99 16 5 44 71 5 8 95 73 2 0 1 31 55 7 7 20 100 100 100 100 5 5 6 33 100 100 100 43 4 0 0 0 0 0 0 0 0 0 0 0
100 100 100 100 82 93 100 100 100 44 14 17 17 27 99 100 100 36 5 5 5 5 94 100 100 100 100 100 49 30 71 100 100 100 100 93 14 2 0 0 0 0 1 30 36 10 0 0 0
96 100 100 100 100 100 84 100 100 6 55 82 12 55 70 100 100 33 4 5 8 27 89 81 100 100 100 100 85 19 99 100 100 100 87 53 23 5 0 0 0 0 2 0 0 2 0 0 0
74 71 100 100 44 5 98 100 71 34 74 9 5 5 13 100 43 10 26 5 5 5 28 100 100 100 100 100 100 100 68 86 54 5 2 0 0 0 0 0 0 0 0 25 1 2 5 0 0
99 28 91 100 97 32 56 99 5 5 57 11 78 5 57 98 10 100 100 7 70 100 100 100 100 100 100 100 11 1 0 0 1 5 0 0 0 3 2 0 0 0 0 0 0 0 0 0 0
29 18 50 100 99 100 15 64 10 46 6 22 5 5 26 6 89 100 100 94 93 98 100 100 100 100 100 5 4 1 2 0 5 0 0 0 0 0 0 0 0 0 2 0 0 0 0 0 0
5 87 98 100 97 100 7 5 93 7 5 49 43 70 96 100 100 100 100 42 100 100 100 100 99 9 3 5 29 98 87 91 41 2 0 0 0 0 0 0 0 60 3 0 0 0 0 0 0
59 100 100 83 5 25 69 5 13 38 56 88 84 7 92 100 100 100 100 94 100 100 100 24 1 46 100 100 100 100 100 99 100 7 0 0 0 0 0 0 0 1 0 0 0 0 0 0 0
92 100 100 83 20 84 99 33 53 79 94 93 5 5 73 100 100 98 69 100 100 100 56 5 30 88 10 4 0 8 0 0 0 0 0 0 0 0 0 0 0 0 0 0 1 0 1 0 0
99 100 100 98 36 89 94 100 98 22 69 5 5 97 93 90 100 66 100 71 100 100 48 5 4 0 0 0 0 0 0 0 0 0 0 0 0 0 0 0 0 2 0 0 0 1 4 0 0
91 100 99 93 100 41 7 99 100 80 59 5 13 85 100 100 100 100 100 100 100 83 0 0 0 0 0 0 0 0 0 0 0 0 0 5 9 5 3 18 2 2 0 38 55 42 5 0 0
8 100 59 76 98 74 76 85 100 100 57 4 100 100 100 100 100 100 98 100 38 1 0 0 0 0 0 0 0 0 0 0 0 1 0 5 6 6 5 7 6 5 5 5 5 14 6 0 0
100 90 100 100 100 99 70 94 77 100 68 71 100 100 82 100 100 100 95 29 35 2 0 0 0 0 0 0 0 0 0 0 4 8 5 20 14 9 7 60 12 48 7 16 6 17 16 0 5
96 68 100 100 100 100 94 89 100 78 89 96 99 100 100 100 100 100 37 100 4 0 0 0 0 0 0 0 0 0 0 3 28 12 5 60 50 7 5 99 27 14 7 38 8 8 14 74 11
100 89 100 100 74 93 100 99 100 44 82 100 100 100 100 100 100 94 100 8 0 0 0 0 0 0 0 0 0 0 3 86 47 5 5 19 5 10 47 100 77 64 70 92 18 16 94 95 13
10 10 26 75 31 42 73 93 100 98 100 100 100 100 100 100 100 100 99 32 0 0 0 0 0 0 0 0 0 0 20 100 43 15 19 29 5 60 5 56 68 47 95 96 4 6 22 94 74
84 3 39 82 100 58 5 17 100 100 100 100 100 100 100 100 100 90 4 2 2 0 0 0 0 0 0 0 0 1 98 100 87 74 80 98 5 5 33 9 6 33 84 22 1 2 57 88 82
6 2 86 55 5 5 13 71 100 100 100 100 100 100 100 100 100 10 0 0 1 1 0 0 0 0 0 0 0 14 13 100 62 95 73 80 5 52 8 18 24 99 86 5 0 36 79 89 96
2 6 100 100 78 9 97 100 100 100 100 100 100 100 100 97 10 1 2 0 5 3 0 0 0 0 0 0 0 4 5 85 5 5 25 16 50 28 5 40 74 99 30 19 6 90 40 64 30
47 96 100 100 17 86 100 100 100 100 100 100 100 100 100 20 0 5 2 0 0 0 1 0 0 0 0 0 0 3 13 6 5 70 5 10 32 5 50 26 88 50 97 12 54 96 48 99 49
100 100 100 100 5 100 100 100 100 100 100 100 100 100 67 53 0 5 3 0 0 1 0 0 0 0 0 0 0 3 10 63 14 80 96 99 77 5 38 52 57 100 98 5 97 81 100 72 78
100 66 73 11 72 100 100 100 47 100 100 100 100 100 5 0 0 0 0 0 0 0 0 0 0 0 0 0 1 4 15 73 94 11 38 100 100 5 65 96 100 100 32 19 87 37 98 72 100
100 33 100 100 100 100 91 100 81 100 100 100 100 12 0 5 2 0 0 0 0 0 0 0 0 0 0 0 4 0 100 99 54 76 99 41 97 20 66 97 68 53 5 6 5 19 5 98 98
100 100 100 99 96 100 63 100 100 100 100 100 35 5 32 98 1 0 0 0 0 0 0 0 0 0 0 0 1 18 100 100 81 99 64 98 78 46 25 98 90 85 5 5 5 5 36 100 100
100 100 89 72 100 100 100 100 93 100 80 5 34 2 100 98 10 0 0 0 2 0 0 0 0 0 0 0 0 88 79 100 97 100 99 92 48 38 95 38 96 90 86 24 5 11 82 100 100
100 100 96 73 57 74 68 100 100 47 13 8 2 12 100 100 0 0 0 5 33 0 0 0 0 0 0 0 0 75 100 44 64 98 75 24 8 26 10 32 97 92 99 99 95 68 66 67 99
89 72 5 18 54 92 34 100 100 59 5 1 0 57 89 94 0 0 0 3 3 0 0 0 0 0 0 0 2 18 100 63 54 100 77 87 90 41 6 32 74 69 42 90 100 53 74 94 71
88 95 7 22 5 30 7 58 95 34 5 0 4 46 95 0 0 0 0 3 0 0 0 0 0 0 0 0 4 94 100 74 99 82 44 100 84 96 87 77 37 99 100 100 58 64 89 100 100
23 5 0 3 53 5 5 46 47 5 1 0 6 86 0 0 0 0 0 0 0 0 0 0 0 0 0 0 4 100 100 42 47 98 70 37 85 100 86 52 44 56 82 92 39 95 95 89 63